Flag for Germany Weather past 2 weeks in Weißenfels, Saxony-Anhalt, Germany

Now
73 °F

Partly sunny.


Feels Like: 76 °F
Forecast: 53 / 74 °F
Wind: 5 mph from East

Location: Leipzig-Schkeuditz

Current Time: Sep 16, 2014 at 3:33:53 PM

Latest Report: Sep 16, 2014 at 3:00 PM


Visibility: 9 mi

Pressure: 30.04 "Hg

Humidity: 66%

Dew point: 61 °F

Location of WeißenfelsLocation

Historic Weather in Weißenfels — Graph

°F

Weißenfels temperature yesterday

Maximum temperature yesterday: 70 °F (at 4:00 PM)
Minimum temperature yesterday: 60 °F (at 12:00 AM)
Average temperature yesterday: 64 °F

Past Weeks' High & Low Weather Summary

 TemperatureHumidityPressure
High80 °F (Sep 6, 4:00 PM)99% (Sep 13, 6:00 AM)30.27 "Hg (Sep 13, 6:00 AM)
Low51 °F (Sep 9, 7:00 AM)52% (Sep 6, 4:00 PM)29.85 "Hg (Sep 6, 4:00 PM)
Average62 °F86%30.06 "Hg
* Reported Sep 1 2:00 PM — Sep 16 2:00 PM, Weißenfels, Weather by CustomWeather, © 2014

Note: Actual official high and low records may vary slightly from our data, if they occured in-between our weather recording intervals... More about our weather records

Advertising

Weißenfels weather history for previous 24 hours

 ConditionsComfort  
Time TempWeatherWind HumidityBarometerVisibility
2:00 PM
Sep 16
72 °FPartly sunny.6 mph67%30.05 "Hg7 mi
1:00 PM72 °FPartly sunny.3 mph67%30.06 "Hg7 mi
12:00 PM68 °FPartly sunny.2 mph86%30.07 "Hg6 mi
11:00 AM62 °FFog.2 mph95%30.08 "Hg4 mi
10:00 AM61 °FFog.1 mph93%30.08 "Hg3 mi
9:00 AM59 °FFog.1 mph96%30.07 "Hg2 mi
8:00 AM56 °FFog.1 mph96%30.07 "Hg2 mi
7:00 AM56 °FFog.2 mph96%30.06 "Hg2 mi
6:00 AM57 °FFog.2 mph96%30.05 "Hg4 mi
4:00 AM58 °FPassing clouds.2 mph94%30.05 "Hg6 mi
3:00 AM58 °FPassing clouds.3 mph92%30.05 "Hg7 mi
2:00 AM60 °FPassing clouds.3 mph91%30.05 "Hg7 mi
1:00 AM61 °FPassing clouds.3 mph89%30.05 "Hg7 mi
12:00 AM62 °FPassing clouds.3 mph89%30.06 "Hg6 mi
11:00 PM
Sep 15
63 °FPassing clouds.3 mph90%30.06 "Hg6 mi
10:00 PM63 °FPassing clouds.2 mph91%30.06 "Hg5 mi
9:00 PM64 °FPassing clouds.2 mph89%30.05 "Hg6 mi
8:00 PM65 °FFog.1 mph88%30.05 "Hg5 mi
7:00 PM68 °FScattered clouds.1 mph82%30.04 "Hg6 mi
6:00 PM69 °FScattered clouds.3 mph77%30.05 "Hg6 mi
5:00 PM69 °FScattered clouds.2 mph74%30.06 "Hg6 mi
4:00 PM70 °FScattered clouds.3 mph70%30.06 "Hg6 mi
3:00 PM68 °FPartly sunny.3 mph74%30.07 "Hg5 mi
Weather by CustomWeather, © 2014

See weather overviewHow to use our weather pages